星链-36303(STARLINK-36303)

导读

STARLINK-36303(NORAD编号68969)是SpaceX星链卫星互联网项目的组网卫星,承担全球低轨宽带互联网覆盖组网任务。星链项目旨在通过大规模低轨卫星星座,为全球提供低成本、高性能的太空互联网接入服务。该卫星属于星链二代组网卫星,运行在近地轨道,轨道周期约90分钟左右,依托星链全球星座部署,可支持偏远地区网络覆盖、高速互联网接入等应用,是SpaceX持续扩张星链星座规模的重要组成部分。

基本信息
目录编号:
68969
目录名称:
STARLINK-36303
国际标识:
2026-099U
轨道中心:
EARTH
卫星名称:
星链-36303
卫星全名:
星链-36303(STARLINK-36303)
卫星状态:
在轨 (已飞行135 天)
发射日期:
2026-05-01 UTC
国别 :
美国 (US)
星等 :
--
该卫星已列入 空间交会检测服务 Space Conjunction Data Service (SCDS) ,当前飞行风险评估等级: 无高风险
轨道信息
数据来源 国际轨道数据
星历时间: 2026-09-13T07:46:49+0800
11小时前
查看轨道信息
半长轴: 6840.863km
偏心率: 0.0001234
轨道倾角: 53.158°
近地点辐角 86.173°
升交点赤经 110.728°
平近点角 273.942°
近地点: 461.881km
远地点: 463.571km
周期: 93.848分钟
每日圈数: 15.343926
详细信息
固有亮度:
5
最大亮度:
2.5
卫星平台:
Starlink V1.0
覆盖范围:
全球
运营商:
太空探索技术公司
运营商所在国:
美国
制造商(研发单位):
太空探索技术公司
制造商所在国:
美国
使用方式:
暂无
卫星简介
Starlink 计划是 SpaceX 推出的全球卫星互联网项目,通过发射低轨道卫星,为全球尤其是偏远地区提供高速、低延迟的互联网服务。自 2019 年起,Starlink 已部署数千颗卫星,旨在缩小全球数字鸿沟,推动互联网普及。该项目还为军事、航空等行业提供通信支持,带来广泛经济效益。
2D轨道图
3D轨道图
轨道高度分析图
轨道倾角分析图
轨道综合分析图
查看轨道综合分析图
交会数据列表
事件ID 空间交会对象 最接近时刻(TCA) 交会距离 交会风险概率(CRP) 交会风险指数(CRI) 操作
CDM_260914-054606-230206-896922
2026-09-14T
05:46:10+0000
0.571 km
远距离
9.484321E-5 中风险 0.75
CDM_260914-015204-775306-896921
2026-09-14T
01:52:58+0000
1.848 km
极远距离
1.99191E-6 低风险 0.41
CDM_260914-142206-230206-896921
2026-09-14T
14:22:00+0000
1.959 km
极远距离
1.918938E-6 低风险 0.41
CDM_260914-190506-638106-896921
2026-09-14T
19:05:52+0000
1.883 km
极远距离
1.654225E-6 低风险 0.39
CDM_260914-155506-230206-896921
2026-09-14T
15:55:48+0000
2.240 km
极远距离
1.413363E-6 低风险 0.38
CDM_260913-223004-177206-896921
2026-09-13T
22:30:29+0000
2.953 km
极远距离
1.36138E-6 低风险 0.38
CDM_260915-032705-302006-896921
2026-09-15T
03:27:34+0000
2.978 km
极远距离
1.193447E-6 低风险 0.37
CDM_260914-085704-943806-896921
2026-09-14T
08:57:50+0000
2.918 km
极远距离
5.593403E-7 极低风险 0.3
与全量物体交会距离演化趋势
与全量物体交会风险概率演化趋势